Flag for U.S.A. Weather past 2 weeks in Hampton, Virginia, U.S.A.

Now
62 °F

Sunny.


Feels Like: 62 °F
Forecast: 46 / 65 °F
Wind: 15 mph from South

Location: Langley Air Force Base

Current Time: Mar 31, 2015 at 12:28:45 PM

Latest Report: Mar 31, 2015 at 11:58 AM


Visibility: 10 mi

Pressure: 29.93 "Hg

Humidity: 30%

Dew point: 30 °F

Location of HamptonLocation

Historic Weather in Hampton — Graph

°F

Hampton temperature yesterday

Maximum temperature yesterday: 59 °F (at 5:58 PM)
Minimum temperature yesterday: 39 °F (at 12:58 AM)
Average temperature yesterday: 48 °F

Past Weeks' High & Low Weather Summary

 TemperatureHumidityPressure
High77 °F (Mar 17, 1:58 PM)100% (Mar 20, 10:03 AM)30.42 "Hg (Mar 20, 10:03 AM)
Low28 °F (Mar 29, 6:58 AM)21% (Mar 29, 5:58 PM)29.67 "Hg (Mar 17, 1:58 PM)
Average47 °F64%30.08 "Hg
* Reported Mar 16 10:58 AM — Mar 31 10:58 AM, Hampton, Weather by CustomWeather, © 2015

Note: Actual official high and low records may vary slightly from our data, if they occured in-between our weather recording intervals... More about our weather records

Advertising

Hampton weather history for previous 24 hours

 ConditionsComfort  
Time TempWeatherWind HumidityBarometerVisibility
10:58 AM
Tue, Mar 31
60 °FSunny.16 mph31%29.97 "Hg10 mi
9:58 AM58 °FSunny.17 mph34%30.00 "Hg10 mi
8:58 AM53 °FSunny.9 mph48%30.01 "Hg10 mi
7:55 AM42 °FSunny.7 mph80%29.99 "Hg10 mi
6:58 AM36 °FClear.6 mph88%30.01 "Hg10 mi
5:58 AM38 °FClear.No wind88%29.99 "Hg10 mi
4:58 AM39 °FClear.3 mph89%30.00 "Hg10 mi
3:58 AM42 °FPassing clouds.3 mph88%29.99 "Hg10 mi
2:58 AM42 °FClear.6 mph89%30.00 "Hg10 mi
1:58 AM42 °FClear.2 mph90%30.00 "Hg10 mi
12:58 AM44 °FClear.3 mph85%30.00 "Hg10 mi
11:58 PM
Mon, Mar 30
45 °FClear.5 mph86%29.97 "Hg10 mi
10:58 PM48 °FClear.6 mph84%29.98 "Hg10 mi
9:58 PM52 °FClear.9 mph78%29.97 "Hg10 mi
8:58 PM53 °FClear.7 mph72%29.95 "Hg10 mi
7:58 PM54 °FSunny.8 mph69%29.91 "Hg10 mi
6:58 PM57 °FSunny.9 mph63%29.89 "Hg10 mi
5:58 PM59 °FSunny.10 mph59%29.89 "Hg10 mi
5:54 PM59 °FSunny.10 mph59%29.87 "Hg10 mi
4:58 PM59 °FSunny.12 mph57%29.89 "Hg10 mi
3:58 PM57 °FSunny.13 mph63%29.90 "Hg10 mi
2:58 PM54 °FSunny.18 mph69%29.92 "Hg10 mi
1:58 PM50 °FPartly sunny.18 mph76%29.94 "Hg10 mi
12:58 PM47 °FOvercast.20 mph81%29.97 "Hg10 mi
Weather by CustomWeather, © 2015

See weather overviewHow to use our weather pages